Location: B�hl
(48.6968°N, 8.1352°E)
Time: 23:58:14
(UTC+00:00)

USA 307 - Pass Details

Date: 08 March 2021
Orbit: 567 x 577 km, 54.0° (Epoch: 13 April)

Event Time Altitude Azimuth Distance (km) Brightness Sun altitude
Rises 20:06:52 0° 297° (WNW) 2,785 7.7 -27.2°
Reaches altitude 10° 20:09:10 10° 292° (WNW) 1,881 6.5 -27.6°
Enters shadow 20:12:09 38° 263° (W) 884 4.2 -28.0°
